Weather observations for the past three days for
Miami, Miami International Airport
Imperial (Metric)
Date Time (edt) Wind (mph) Vis. (mi.) Weather Sky Cond. Temperature (ºF) Relative Humidity Wind Chill (°F) Heat Index (°F) Pressure Precipitation (in)
Air Dwpt 6 hour altimeter (in) sea level (mb) 1 hr 3 hr 6 hr
Max. Min.
14 08:53 E 9 10.00 Overcast SCT022 BKN028 BKN042 OVC250 88 78.1 73% 102 30.13 1020.3
14 07:53 E 10 10.00 Mostly Cloudy SCT020 BKN250 86 78.1 86 82.9 77% 98 30.12 1020.1
14 06:53 E 10 10.00 Mostly Cloudy FEW020 SCT030 BKN250 84.9 77 77% 95 30.11 1019.7
14 05:53 E 6 10.00 Mostly Cloudy FEW019 BKN250 82.9 78.1 85% 93 30.11 1019.6
14 04:53 E 7 10.00 Mostly Cloudy SCT019 BKN250 84 78.1 82% 95 30.1 1019.4
14 03:53 E 8 10.00 Mostly Cloudy SCT019 BKN250 84 78.1 82% 95 30.1 1019.3
14 02:53 E 8 10.00 Mostly Cloudy SCT019 BKN250 84.9 79 82% 98 30.11 1019.5
14 01:53 E 7 10.00 Mostly Cloudy SCT019 BKN250 84.9 79 87.1 84.9 82% 98 30.15 1020.8
14 00:53 E 8 10.00 Mostly Cloudy SCT019 BKN250 84.9 79 82% 98 30.17 1021.5
13 23:53 E 9 10.00 Mostly Cloudy BKN019 BKN250 84.9 78.1 80% 97 30.18 1021.8
13 22:53 E 9 10.00 Mostly Cloudy BKN021 BKN250 84.9 78.1 80% 97 30.16 1021.3
13 21:53 E 10 10.00 Mostly Cloudy SCT025 BKN250 86 77 75% 97 30.16 1021.3
13 20:53 E 8 10.00 Mostly Cloudy FEW023 BKN250 86 77 75% 97 30.16 1021.4
13 19:53 E 9 10.00 Mostly Cloudy SCT026 SCT130 BKN250 86 75.9 90 86 72% 96 30.15 1021.0
13 18:53 SE 8 10.00 Mostly Cloudy SCT030 SCT130 BKN250 87.1 75.9 70% 98 30.14 1020.8
13 17:53 E 10 10.00 Mostly Cloudy FEW030 FEW130 BKN250 87.1 77 72% 99 30.13 1020.2
13 16:53 SE 10 10.00 Mostly Cloudy SCT030 SCT130 BKN250 88 77 70% 100 30.12 1019.9
13 15:53 SE 12 10.00 Mostly Cloudy SCT030 SCT038 SCT110 BKN250 89.1 75.9 65% 100 30.14 1020.6
13 14:53 SE 8 10.00 Mostly Cloudy FEW025 FEW065 SCT110 BKN250 90 78.1 68% 105 30.15 1020.9
13 13:53 E 13 10.00 Mostly Cloudy SCT035TCU BKN065 BKN250 87.1 78.1 91 82 75% 100 30.17 1021.6
13 12:53 E 15 10.00 Mostly Cloudy BKN032 BKN042 BKN250 91 75 59% 102 30.17 1021.7
13 11:53 E 10 10.00 Mostly Cloudy BKN031 BKN045 BKN250 89.1 75 63% 99 30.18 1022.0
13 10:53 NE 10 G 17 10.00 Mostly Cloudy BKN030 BKN250 88 77 70% 100 30.18 1021.9
13 09:53 E 9 10.00 Mostly Cloudy SCT025 BKN034 BKN250 86 75.9 72% 96 30.18 1022.0
13 08:53 NE 5 10.00 Mostly Cloudy SCT030 BKN250 84.9 77 77% 95 30.18 1022.1
13 07:53 NE 3 10.00 Mostly Cloudy FEW030 FEW130 BKN250 82 73.9 82 80.1 77% 88 30.17 1021.7
13 06:53 N 5 10.00 Mostly Cloudy FEW020 FEW100 BKN250 80.1 72 76% 84 30.16 1021.3
13 05:53 NE 3 10.00 Mostly Cloudy BKN250 80.1 72 76% 84 30.15 1020.8
13 04:53 N 5 10.00 Mostly Cloudy BKN250 80.1 72 76% 84 30.14 1020.5
13 03:53 Calm 10.00 Mostly Cloudy FEW037 BKN250 80.1 72 76% 84 30.12 1020.0
13 02:53 N 3 10.00 Mostly Cloudy FEW037 BKN250 81 73 77% 86 30.13 1020.2
13 01:53 NE 3 10.00 Mostly Cloudy FEW037 BKN250 82 73 84.9 81 74% 87 30.15 1021.0
13 00:53 Calm 10.00 Mostly Cloudy FEW037 BKN250 81 73.9 79% 86 30.17 1021.5
12 23:53 Calm 10.00 Overcast FEW037 FEW055 OVC250 81 73 77% 86 30.17 1021.6
12 22:53 NW 3 10.00 Overcast FEW037 FEW055 OVC250 82 71.1 69% 86 30.16 1021.4
12 21:53 NW 6 10.00 Overcast SCT037 BKN055 BKN200 OVC250 82.9 72 70% 88 30.16 1021.3
12 20:53 SW 5 10.00 Overcast FEW085 SCT120 BKN200 OVC250 84 72 67% 90 30.15 1021.1
12 19:53 SW 3 10.00 Overcast SCT090 BKN120 OVC250 84 72 90 82.9 67% 90 30.14 1020.8
12 18:53 S 6 10.00 Overcast FEW040 BKN150 OVC250 84 73 70% 90 30.11 1019.7
12 17:53 S 8 10.00 Overcast FEW040 SCT160 OVC250 84 72 67% 90 30.1 1019.3
12 16:53 S 8 G 20 10.00 Mostly Cloudy FEW025 SCT160 BKN220 84 73.9 72% 91 30.09 1018.9
12 15:53 S 12 G 22 10.00 Mostly Cloudy FEW038 SCT049 BKN250 86 73.9 67% 94 30.09 1019.0
12 14:53 SE 12 G 25 10.00 Mostly Cloudy FEW040 SCT085 BKN250 89.1 73 59% 97 30.1 1019.1
12 13:53 E 10 10.00 Mostly Cloudy FEW043 SCT085 BKN250 89.1 73 90 78.1 59% 97 30.12 1019.8
12 12:53 SE 3 10.00 Mostly Cloudy FEW043 BKN085 BKN140 BKN250 87.1 72 61% 94 30.13 1020.1
12 11:53 SW 6 10.00 Mostly Cloudy BKN036 BKN200 86 70 59% 91 30.13 1020.3
12 10:53 S 3 10.00 Mostly Cloudy SCT035 SCT075 BKN190 BKN250 82.9 71.1 67% 88 30.13 1020.4
12 09:53 Calm 10.00 Overcast FEW025 BKN130 BKN180 OVC250 81 72 74% 85 30.12 1020.0
12 08:53 S 3 10.00 Overcast FEW025 BKN120 OVC250 78.1 73 85% 81 30.1 1019.3
12 07:53 Vrbl 3 10.00 Overcast FEW025 FEW100 BKN130 OVC250 79 71.1 80.1 77 77% 82 30.06 1017.9 0.05
12 06:53 W 6 10.00 Overcast FEW025 BKN100 BKN130 OVC250 78.1 70 76% 80 30.04 1017.4 0.05
12 05:53 Calm 10.00 Mostly Cloudy FEW032 BKN048 BKN090 BKN250 77 71.1 82% 79 30.05 1017.5
12 04:53 Calm 10.00 Partly Cloudy FEW047 FEW120 SCT250 78.1 73.9 87% 81 30.02 1016.7
12 03:53 Calm 10.00 Mostly Cloudy BKN120 BKN250 80.1 73 79% 84 30 1016.0
12 02:53 Calm 10.00 Mostly Cloudy BKN120 BKN250 80.1 73 79% 84 30.02 1016.4
12 01:53 Calm 10.00 Overcast BKN120 OVC250 80.1 73 81 79 79% 84 30.04 1017.4
12 00:53 Calm 10.00 Overcast BKN100 OVC250 81 71.1 72% 85 30.06 1017.7
11 23:53 Calm 10.00 Overcast SCT100 OVC250 80.1 71.1 74% 84 30.06 1017.8
11 22:53 S 6 10.00 Overcast BKN150 OVC250 79 71.1 77% 82 30.04 1017.1
11 21:53 SE 5 10.00 Overcast BKN100 BKN150 OVC250 79 71.1 77% 82 30.03 1017.0
11 20:53 S 6 10.00 Overcast BKN100 BKN130 OVC160 79 71.1 77% 82 30.03 1016.9
11 19:53 SE 8 10.00 Overcast FEW080 BKN100 OVC150 79 72 81 75.9 79% 82 30.02 1016.5 0.46
11 18:53 SE 6 10.00 Overcast FEW040 SCT075 BKN110 OVC200 79 72 79% 82 30.02 1016.5
11 17:53 S 5 10.00 Overcast SCT041 OVC110 78.1 73 85% 81 30.01 1016.3
11 16:53 SE 6 10.00 Overcast SCT045 BKN085 BKN110 OVC150 78.1 73 85% 81 30.02 1016.6 0.46
11 15:53 Calm 10.00 Light Rain FEW030 SCT065 BKN090 OVC130 77 71.1 82% 79 30.03 1016.8 0.04
11 14:53 NW 10 G 25 7.00 Thunderstorm Light Rain SCT020CB BKN035 BKN055 OVC130 77 70 79% 79 30.03 1016.9 0.42
11 13:53 W 14 G 25 7.00 Rain BKN035CB BKN050 BKN150 OVC250 82 72 91 82 72% 87 30.01 1016.3
11 12:53 NW 6 10.00 Overcast BKN038 BKN150 OVC250 90 72 56% 97 30.02 1016.5
11 11:53 W 5 10.00 Overcast SCT035 SCT130 BKN150 OVC250 89.1 69.1 52% 94 30.02 1016.6
11 10:53 SW 10 10.00 Overcast FEW034 BKN140 BKN170 OVC250 88 71.1 57% 94 30.02 1016.5
11 09:53 SW 3 10.00 Overcast BKN037 BKN140 OVC250 86 71.1 61% 92 30.02 1016.6
Date Time (edt) Wind (mph) Vis. (mi.) Weather Sky Cond. Air Dwpt Max. Min. Relative Humidity Wind Chill (°F) Heat Index (°F) altimeter (in) sea level (mb) 1 hr 3 hr 6 hr
6 hour
Temperature (ºF) Pressure Precipitation (in)